Osceola, IA

9:59 PM CDT on July 24, 2016 (GMT -0500)
Osceola Municipal

Weather History for KI75 - February, 2013

Change the Weather History Date:

Wednesday, February 6, 2013

  Actual Average (KLWD) Record (KLWD)
Temperature  
Mean Temperature 35 °F 26 °F  
Max Temperature 45 °F 35 °F 64 °F (2009)
Min Temperature 25 °F 17 °F -12 °F (2014)
Degree Days  
Heating Degree Days 30 39  
Month to date heating degree days 237  
Since 1 July heating degree days 3929  
Cooling Degree Days 0 0  
Month to date cooling degree days 0  
Year to date cooling degree days 0  
Moisture  
Dew Point 30 °F    
Average Humidity 80    
Maximum Humidity 96    
Minimum Humidity 59    
Precipitation  
Precipitation 0.00 in 0.05 in 0.47 in (2005)
Month to date precipitation 0.27  
Sea Level Pressure  
Sea Level Pressure 30.01 in    
Wind  
Wind Speed 6 mph (SE)    
Max Wind Speed 16 mph    
Max Gust Speed 21 mph    
Visibility 8 miles    
Events      
T = Trace of Precipitation, MM = Missing Value Source: NWS Daily Summary

Daily Weather History Graph

Daily Weather History Graph

Search for Another Location

Airport or City:

Trip Planner

Search our weather history database for the weather conditions in past years. The results will help you decide how hot, cold, wet, or windy it might be!

Date:

Astronomy

Feb. 06, 2013 Rise Set
Actual Time 7:19 AM CST 5:38 PM CST
Civil Twilight 6:51 AM CST 6:07 PM CST
Nautical Twilight 6:18 AM CST 6:39 PM CST
Astronomical Twilight 5:46 AM CST 7:11 PM CST
Moon 4:05 AM CST (2/6) 1:56 PM CST (2/6)
Length of Visible Light 11h 15m
Length of Day
10h 18m
Waning Crescent, 17% of the Moon is Illuminated
Feb 6
Waning Crescent
Feb 10
New
Feb 17
First Quarter
Feb 25
Full
Mar 4
Last Quarter

Hourly Weather History & Observations

Time (CST) Temp. Windchill Dew Point Humidity Pressure Visibility Wind Dir Wind Speed Gust Speed Precip Events Conditions
12:15 AM 28.9 °F - 27.0 °F 92% 30.12 in 10.0 mi Calm Calm - N/A   Clear
12:35 AM 25.5 °F - 23.7 °F 93% 30.11 in 5.0 mi Calm Calm - N/A   Clear
1:15 AM 25.3 °F 21.1 °F 24.1 °F 95% 30.10 in 5.0 mi East 3.5 mph - N/A   Clear
1:35 AM 25.7 °F 21.5 °F 24.6 °F 96% 30.09 in 5.0 mi East 3.5 mph - N/A   Clear
1:55 AM 25.5 °F 19.9 °F 24.6 °F 96% 30.09 in 5.0 mi East 4.6 mph - N/A   Clear
2:35 AM 26.4 °F 20.9 °F 25.3 °F 96% 30.10 in 5.0 mi SSE 4.6 mph - N/A   Clear
2:55 AM 27.9 °F 22.6 °F 26.6 °F 95% 30.10 in 5.0 mi SSE 4.6 mph - N/A   Clear
3:15 AM 28.2 °F 23.1 °F 26.6 °F 94% 30.09 in 5.0 mi SSE 4.6 mph - N/A   Clear
3:35 AM 28.8 °F 21.7 °F 27.1 °F 94% 30.10 in 7.0 mi SSE 6.9 mph - N/A   Clear
3:55 AM 28.8 °F 23.7 °F 27.0 °F 93% 30.09 in 5.0 mi SE 4.6 mph - N/A   Clear
4:15 AM 28.8 °F 23.7 °F 27.0 °F 93% 30.09 in 5.0 mi East 4.6 mph - N/A   Clear
4:35 AM 28.8 °F 25.0 °F 27.1 °F 94% 30.09 in 5.0 mi East 3.5 mph - N/A   Clear
4:55 AM 28.4 °F 24.6 °F 27.0 °F 94% 30.10 in 5.0 mi East 3.5 mph - N/A   Scattered Clouds
5:15 AM 28.4 °F 23.3 °F 27.1 °F 95% 30.09 in 5.0 mi ESE 4.6 mph - N/A   Clear
5:35 AM 28.8 °F 22.6 °F 27.5 °F 95% 30.09 in 5.0 mi ESE 5.8 mph - N/A   Clear
5:55 AM 28.9 °F 22.8 °F 27.5 °F 94% 30.09 in 5.0 mi ESE 5.8 mph - N/A   Clear
6:15 AM 29.3 °F 22.3 °F 27.9 °F 94% 30.08 in 5.0 mi East 6.9 mph - N/A   Clear
6:35 AM 29.1 °F 21.3 °F 27.5 °F 94% 30.07 in 5.0 mi East 8.1 mph - N/A   Clear
6:55 AM 28.6 °F 22.4 °F 27.1 °F 94% 30.08 in 5.0 mi SE 5.8 mph - N/A   Clear
7:15 AM 28.4 °F 22.2 °F 27.1 °F 95% 30.08 in 5.0 mi ESE 5.8 mph - N/A   Clear
7:35 AM 28.6 °F 22.4 °F 27.3 °F 95% 30.09 in 4.0 mi SE 5.8 mph - N/A   Clear
7:55 AM 29.3 °F 22.3 °F 28.0 °F 95% 30.09 in 5.0 mi SE 6.9 mph - N/A   Clear
8:15 AM 30.0 °F 21.7 °F 28.2 °F 93% 30.09 in 5.0 mi SE 9.2 mph - N/A   Clear
8:35 AM 30.2 °F 22.6 °F 28.4 °F 93% 30.09 in 5.0 mi SE 8.1 mph - N/A   Clear
8:55 AM 31.1 °F 23.1 °F 28.9 °F 92% 30.09 in 5.0 mi SE 9.2 mph - N/A   Scattered Clouds
9:15 AM 31.8 °F 23.9 °F 29.3 °F 90% 30.08 in 7.0 mi SE 9.2 mph - N/A   Mostly Cloudy
9:35 AM 32.4 °F 23.5 °F 30.0 °F 91% 30.08 in 7.0 mi SE 11.5 mph - N/A   Overcast
9:55 AM 33.8 °F 25.3 °F 30.9 °F 89% 30.07 in 10.0 mi SE 11.5 mph 16.1 mph N/A   Mostly Cloudy
10:15 AM 35.6 °F 27.1 °F 31.1 °F 84% 30.07 in 10.0 mi SSE 12.7 mph - N/A   Scattered Clouds
10:35 AM 36.5 °F 28.7 °F 32.0 °F 84% 30.07 in 10.0 mi SSE 11.5 mph - N/A   Clear
10:55 AM 37.6 °F 30.0 °F 32.0 °F 80% 30.06 in 10.0 mi SSE 11.5 mph - N/A   Clear
11:15 AM 38.8 °F 31.6 °F 32.0 °F 76% 30.06 in 10.0 mi SSE 11.5 mph 18.4 mph N/A   Clear
11:35 AM 39.6 °F 33.0 °F 32.0 °F 74% 30.05 in 10.0 mi SSE 10.4 mph - N/A   Clear
11:55 AM 41.0 °F 34.3 °F 32.2 °F 71% 30.04 in 10.0 mi SSE 11.5 mph - N/A   Clear
12:15 PM 42.8 °F 35.8 °F 32.0 °F 66% 30.03 in 10.0 mi SSE 13.8 mph - N/A   Clear
12:35 PM 43.5 °F 36.1 °F 31.5 °F 63% 30.01 in 10.0 mi SSE 16.1 mph - N/A   Clear
12:55 PM 43.3 °F 36.1 °F 30.0 °F 59% 30.00 in 10.0 mi SSE 15.0 mph 20.7 mph N/A   Clear
1:15 PM 43.5 °F 38.3 °F 32.0 °F 64% 30.00 in 10.0 mi SSE 9.2 mph - N/A   Clear
1:35 PM 43.5 °F 37.5 °F 32.0 °F 64% 29.99 in 10.0 mi SSE 11.5 mph - N/A   Clear
1:55 PM 44.1 °F 37.7 °F 32.2 °F 63% 29.98 in 10.0 mi SSE 12.7 mph - N/A   Clear
2:15 PM 44.1 °F 38.6 °F 32.2 °F 63% 29.97 in 10.0 mi SE 10.4 mph - N/A   Clear
2:35 PM 44.2 °F 38.8 °F 32.4 °F 63% 29.96 in 10.0 mi SSE 10.4 mph - N/A   Clear
2:55 PM 45.0 °F 38.5 °F 32.7 °F 62% 29.95 in 10.0 mi SE 13.8 mph - N/A   Clear
3:15 PM 44.6 °F 39.2 °F 33.6 °F 65% 29.94 in 10.0 mi SE 10.4 mph - N/A   Clear
3:35 PM 44.6 °F 39.7 °F 33.8 °F 66% 29.93 in 10.0 mi SE 9.2 mph - N/A   Scattered Clouds
3:55 PM 44.6 °F 39.2 °F 33.3 °F 64% 29.93 in 10.0 mi SE 10.4 mph - N/A   Scattered Clouds
4:15 PM 43.5 °F 37.5 °F 32.2 °F 64% 29.92 in 10.0 mi SE 11.5 mph - N/A   Scattered Clouds
4:55 PM 42.8 °F 38.0 °F 32.0 °F 66% 29.92 in 10.0 mi SE 8.1 mph - N/A   Scattered Clouds
5:15 PM 42.1 °F 37.1 °F 32.4 °F 68% 29.92 in 10.0 mi SE 8.1 mph - N/A   Scattered Clouds
5:35 PM 41.0 °F 37.1 °F 32.2 °F 71% 29.92 in 10.0 mi SE 5.8 mph - N/A   Scattered Clouds
5:55 PM 40.6 °F 36.0 °F 32.2 °F 72% 29.92 in 10.0 mi SE 6.9 mph - N/A   Overcast
6:15 PM 40.1 °F 35.3 °F 32.2 °F 73% 29.92 in 10.0 mi SE 6.9 mph - N/A   Overcast
6:35 PM 40.8 °F 35.0 °F 32.2 °F 71% 29.92 in 10.0 mi SSE 9.2 mph - N/A   Overcast
6:55 PM 39.4 °F 33.2 °F 32.0 °F 75% 29.92 in 10.0 mi SE 9.2 mph - N/A   Mostly Cloudy
7:15 PM 39.4 °F 32.7 °F 31.8 °F 74% 29.91 in 10.0 mi SE 10.4 mph - N/A   Scattered Clouds
7:35 PM 40.1 °F 33.2 °F 32.0 °F 73% 29.91 in 10.0 mi SE 11.5 mph - N/A   Mostly Cloudy
7:55 PM 40.8 °F 35.0 °F 32.0 °F 71% 29.91 in 10.0 mi SE 9.2 mph - N/A   Overcast
8:15 PM 40.5 °F 35.1 °F 31.8 °F 71% 29.91 in 10.0 mi SE 8.1 mph - N/A   Overcast
8:35 PM 39.2 °F 33.6 °F 32.0 °F 75% 29.91 in 10.0 mi SE 8.1 mph - N/A   Overcast
8:55 PM 38.5 °F 32.1 °F 32.0 °F 78% 29.91 in 10.0 mi SE 9.2 mph - N/A   Overcast
9:15 PM 37.9 °F 32.7 °F 31.6 °F 78% 29.91 in 10.0 mi SE 6.9 mph - N/A   Overcast
9:35 PM 38.3 °F 33.2 °F 32.0 °F 78% 29.91 in 10.0 mi SE 6.9 mph - N/A   Overcast
9:55 PM 38.3 °F 32.5 °F 32.0 °F 78% 29.91 in 10.0 mi SE 8.1 mph - N/A   Overcast
10:15 PM 38.7 °F 32.4 °F 32.0 °F 77% 29.91 in 10.0 mi SE 9.2 mph - N/A   Overcast
10:35 PM 40.3 °F 34.4 °F 32.0 °F 72% 29.91 in 10.0 mi SSE 9.2 mph - N/A   Overcast
10:55 PM 40.5 °F 35.1 °F 32.2 °F 72% 29.91 in 10.0 mi SE 8.1 mph - N/A   Light Drizzle
11:15 PM 39.7 °F 33.7 °F 32.5 °F 75% 29.90 in 10.0 mi SSE 9.2 mph - N/A   Overcast
11:35 PM 40.1 °F 34.7 °F 32.9 °F 75% 29.90 in 10.0 mi SSE 8.1 mph - N/A   Overcast
11:55 PM 40.1 °F 34.1 °F 33.1 °F 76% 29.90 in 10.0 mi SSE 9.2 mph - N/A   Mostly Cloudy